WA7ZVY-4 Weather Reports


Display with metric or nautical units.
time (UTC)temp
F
wind
direction
speed
MPH
gust
MPH
rain 1hr
in
rain 24hr
in
rain mn
in
humidity
%
barometer
mb
20260508211156 64 289 6.0 8.0 0.00 0.00 0.00 64 1021.9
20260508210644 64 270 3.0 8.0 0.00 0.00 0.00 64 1021.6
20260508205053 64 305 3.0 7.0 0.00 0.00 0.00 63 1021.6
20260508204621 64 299 6.0 7.0 0.00 0.00 0.00 63 1021.5
20260508203100 64 287 3.0 9.0 0.00 0.00 0.00 64 1021.5
20260508202945 64 287 4.0 9.0 0.00 0.00 0.00 64 1021.5
20260508202553 64 292 4.0 9.0 0.00 0.00 0.00 64 1021.5
20260508202427 64 266 2.0 9.0 0.00 0.00 0.00 64 1021.5
20260508202046 64 299 4.0 9.0 0.00 0.00 0.00 65 1021.6
20260508201354 64 239 4.0 5.0 0.00 0.00 0.00 65 1021.6
20260508201032 64 289 5.0 11.0 0.00 0.00 0.00 65 1021.3
20260508200837 64 280 3.0 11.0 0.00 0.00 0.00 65 1021.2
20260508195511 63 205 8.0 11.0 0.00 0.00 0.00 67 1021.3
20260508194457 63 191 6.0 10.0 0.00 0.00 0.00 67 1021.5
20260508194211 63 194 4.0 10.0 0.00 0.00 0.00 68 1021.6
20260508193137 62 246 5.0 7.0 0.00 0.00 0.00 68 1021.5
20260508192935 62 242 4.0 8.0 0.00 0.00 0.00 68 1021.5
20260508192620 61 253 4.0 8.0 0.00 0.00 0.00 68 1021.5
20260508191922 61 249 4.0 8.0 0.00 0.00 0.00 70 1021.6
20260508191546 61 238 4.0 8.0 0.00 0.00 0.00 70 1021.6
20260508191414 61 238 5.0 8.0 0.00 0.00 0.00 70 1021.6
20260508191029 61 250 5.0 7.0 0.00 0.00 0.00 70 1021.6
20260508190512 61 245 3.0 7.0 0.00 0.00 0.00 70 1021.6
20260508190401 61 245 3.0 7.0 0.00 0.00 0.00 70 1021.7
20260508185955 61 294 4.0 7.0 0.00 0.00 0.00 70 1021.7
20260508185853 61 232 3.0 7.0 0.00 0.00 0.00 70 1021.7
20260508185438 61 233 6.0 9.0 0.00 0.00 0.00 71 1021.6
20260508185348 61 250 4.0 9.0 0.00 0.00 0.00 71 1021.7
20260508184921 60 180 1.0 9.0 0.00 0.00 0.00 71 1021.7
20260508184839 60 180 1.0 9.0 0.00 0.00 0.00 72 1021.7
20260508184405 60 231 1.0 9.0 0.00 0.00 0.00 72 1021.7
20260508184332 60 231 1.0 9.0 0.00 0.00 0.00 72 1021.7
20260508183847 60 228 3.0 9.0 0.00 0.00 0.00 73 1021.8
20260508183825 60 228 1.0 9.0 0.00 0.00 0.00 73 1021.8
20260508183330 59 214 3.0 9.0 0.00 0.00 0.00 75 1021.7
20260508183318 59 0 0.0 9.0 0.00 0.00 0.00 75 1021.7
20260508182812 58 287 4.0 9.0 0.00 0.00 0.00 78 1021.7
20260508182306 57 242 3.0 9.0 0.00 0.00 0.00 79 1021.7
20260508182256 57 194 5.0 9.0 0.00 0.00 0.00 79 1021.7
20260508181757 57 218 6.0 9.0 0.00 0.00 0.00 80 1021.7
20260508181739 57 218 4.0 9.0 0.00 0.00 0.00 80 1021.7
20260508181250 56 215 6.0 8.0 0.00 0.00 0.00 80 1021.7
20260508181222 56 215 4.0 8.0 0.00 0.00 0.00 80 1021.7
20260508180743 56 159 3.0 9.0 0.00 0.00 0.00 80 1021.8
20260508180705 56 159 3.0 9.0 0.00 0.00 0.00 80 1021.8
20260508180236 56 215 5.0 9.0 0.00 0.00 0.00 80 1021.9
20260508180148 56 215 4.0 9.0 0.00 0.00 0.00 80 1021.8
20260508175631 55 196 4.0 9.0 0.00 0.00 0.00 80 1021.8
20260508175222 55 240 2.0 5.0 0.00 0.00 0.00 80 1021.7
20260508175114 55 240 5.0 5.0 0.00 0.00 0.00 80 1021.7
20260508174716 55 182 4.0 9.0 0.00 0.00 0.00 80 1021.7
20260508174557 55 182 4.0 9.0 0.00 0.00 0.00 80 1021.7
20260508174208 55 211 2.0 9.0 0.00 0.00 0.00 80 1021.7
20260508173701 55 193 2.0 9.0 0.00 0.00 0.00 80 1021.6
20260508173523 55 193 5.0 9.0 0.00 0.00 0.00 80 1021.7
20260508173154 55 175 4.0 9.0 0.00 0.00 0.00 80 1021.6
20260508173006 55 292 2.0 9.0 0.00 0.00 0.00 80 1021.6
20260508172647 55 211 2.0 9.0 0.00 0.00 0.00 81 1021.6
20260508172449 55 211 2.0 9.0 0.00 0.00 0.00 81 1021.6
20260508171932 55 207 3.0 9.0 0.00 0.00 0.00 81 1021.5
20260508171634 55 232 6.0 9.0 0.00 0.00 0.00 81 1021.5
20260508171415 55 239 3.0 7.0 0.00 0.00 0.00 81 1021.5
20260508171126 55 235 2.0 7.0 0.00 0.00 0.00 81 1021.5
20260508170858 55 235 4.0 7.0 0.00 0.00 0.00 81 1021.5
20260508170341 55 222 2.0 7.0 0.00 0.00 0.00 81 1021.5
20260508170112 55 215 6.0 7.0 0.00 0.00 0.00 81 1021.4
20260508165825 55 0 0.0 7.0 0.00 0.00 0.00 81 1021.4
20260508165605 55 201 3.0 7.0 0.00 0.00 0.00 81 1021.4
20260508165307 55 0 0.0 6.0 0.00 0.00 0.00 81 1021.4
20260508165058 55 210 2.0 4.0 0.00 0.00 0.00 81 1021.4
20260508164750 55 177 2.0 4.0 0.00 0.00 0.00 81 1021.4
20260508164234 54 210 2.0 4.0 0.00 0.00 0.00 82 1021.3
20260508164044 54 210 2.0 4.0 0.00 0.00 0.00 82 1021.2
20260508163716 54 212 1.0 3.0 0.00 0.00 0.00 82 1021.2
20260508163537 54 212 1.0 9.0 0.00 0.00 0.00 82 1021.3
20260508163200 54 203 3.0 9.0 0.00 0.00 0.00 83 1021.3
20260508163030 54 203 3.0 9.0 0.00 0.00 0.00 83 1021.2
20260508162642 54 240 1.0 9.0 0.00 0.00 0.00 83 1021.1
20260508162523 54 184 1.0 9.0 0.00 0.00 0.00 83 1021.1
20260508162125 54 232 4.0 9.0 0.00 0.00 0.00 84 1021.1
20260508161608 54 219 3.0 8.0 0.00 0.00 0.00 84 1021.0
20260508161509 54 219 4.0 8.0 0.00 0.00 0.00 85 1021.0
20260508161052 54 210 2.0 8.0 0.00 0.00 0.00 85 1020.9
20260508161002 54 210 2.0 8.0 0.00 0.00 0.00 85 1020.9
20260508160534 54 210 5.0 8.0 0.00 0.00 0.00 85 1020.9
20260508160455 53 176 5.0 7.0 0.00 0.00 0.00 85 1020.9
20260508160017 53 201 1.0 7.0 0.00 0.00 0.00 86 1020.9
20260508155948 53 201 1.0 7.0 0.00 0.00 0.00 86 1020.9
20260508155500 53 210 3.0 7.0 0.00 0.00 0.00 86 1020.9
20260508155441 53 210 3.0 7.0 0.00 0.00 0.00 86 1020.9
20260508154934 53 0 0.0 6.0 0.00 0.00 0.00 87 1020.9
20260508154426 52 184 5.0 9.0 0.00 0.00 0.00 87 1020.9
20260508153920 52 201 2.0 9.0 0.00 0.00 0.00 86 1020.8
20260508153909 52 201 2.0 9.0 0.00 0.00 0.00 86 1020.8
20260508153413 52 201 4.0 9.0 0.00 0.00 0.00 86 1020.8
20260508153352 52 219 3.0 9.0 0.00 0.00 0.00 86 1020.8
20260508152906 52 211 2.0 9.0 0.00 0.00 0.00 86 1020.7
20260508152835 52 204 2.0 9.0 0.00 0.00 0.00 86 1020.7
20260508152359 52 186 4.0 8.0 0.00 0.00 0.00 86 1020.6
20260508152318 52 0 0.0 8.0 0.00 0.00 0.00 86 1020.7
20260508151852 52 197 5.0 8.0 0.00 0.00 0.00 86 1020.5
20260508151801 52 0 0.0 8.0 0.00 0.00 0.00 86 1020.6
20260508151244 52 0 0.0 4.0 0.00 0.00 0.00 86 1020.5
20260508150838 52 0 0.0 4.0 0.00 0.00 0.00 86 1020.4
20260508150727 52 193 2.0 4.0 0.00 0.00 0.00 86 1020.5
20260508150331 52 193 4.0 7.0 0.00 0.00 0.00 86 1020.2
20260508150210 52 203 1.0 7.0 0.00 0.00 0.00 86 1020.3
20260508145824 52 0 0.0 7.0 0.00 0.00 0.00 86 1020.2
20260508145655 52 166 2.0 7.0 0.00 0.00 0.00 86 1020.0
20260508145317 52 212 2.0 7.0 0.00 0.00 0.00 87 1020.2
20260508145136 52 219 6.0 7.0 0.00 0.00 0.00 87 1020.1
20260508144812 52 134 3.0 3.0 0.00 0.00 0.00 87 1020.1
20260508144620 52 0 0.0 0.0 0.00 0.00 0.00 87 1020.1
20260508144303 52 0 0.0 6.0 0.00 0.00 0.00 87 1020.0
20260508144102 52 176 2.0 6.0 0.00 0.00 0.00 87 1019.9
20260508143756 52 0 0.0 6.0 0.00 0.00 0.00 87 1019.8
20260508143546 52 210 2.0 6.0 0.00 0.00 0.00 87 1019.7
20260508143249 52 225 4.0 6.0 0.00 0.00 0.00 87 1020.0
20260508143028 52 169 4.0 6.0 0.00 0.00 0.00 87 1020.0
20260508142742 52 168 5.0 6.0 0.00 0.00 0.00 87 1019.9
20260508142512 52 0 0.0 5.0 0.00 0.00 0.00 87 1020.0
20260508142235 52 172 2.0 5.0 0.00 0.00 0.00 87 1020.0
20260508141954 52 172 2.0 5.0 0.00 0.00 0.00 87 1019.7
20260508141728 52 168 2.0 5.0 0.00 0.00 0.00 87 1019.6
20260508141437 52 168 2.0 5.0 0.00 0.00 0.00 87 1019.6
20260508141221 52 207 1.0 3.0 0.00 0.00 0.00 87 1019.6
20260508140920 52 207 1.0 3.0 0.00 0.00 0.00 87 1019.4
20260508140714 52 0 0.0 3.0 0.00 0.00 0.00 87 1019.5
20260508140403 52 0 0.0 3.0 0.00 0.00 0.00 87 1019.6
20260508140207 52 222 1.0 3.0 0.00 0.00 0.00 87 1019.6
20260508135846 51 222 3.0 3.0 0.00 0.00 0.00 87 1019.8
20260508135700 51 0 0.0 0.0 0.00 0.00 0.00 87 1019.7
20260508135329 51 0 0.0 0.0 0.00 0.00 0.00 87 1019.6
20260508135153 51 0 0.0 0.0 0.00 0.00 0.00 87 1019.4
20260508134812 51 0 0.0 0.0 0.00 0.00 0.00 87 1019.2
20260508134646 51 0 0.0 0.0 0.00 0.00 0.00 87 1019.2
20260508134255 51 0 0.0 0.0 0.00 0.00 0.00 87 1019.5
20260508134139 51 0 0.0 0.0 0.00 0.00 0.00 87 1019.5
20260508133738 51 0 0.0 0.0 0.00 0.00 0.00 88 1019.4
20260508133632 51 0 0.0 0.0 0.00 0.00 0.00 88 1019.4
20260508133221 51 0 0.0 0.0 0.00 0.00 0.00 88 1019.5
20260508133125 51 0 0.0 0.0 0.00 0.00 0.00 88 1019.5
20260508132704 51 0 0.0 0.0 0.00 0.00 0.00 88 1019.6
20260508132618 51 0 0.0 0.0 0.00 0.00 0.00 88 1019.5
20260508132147 51 0 0.0 0.0 0.00 0.00 0.00 88 1019.5
20260508132111 51 0 0.0 0.0 0.00 0.00 0.00 88 1019.5
20260508131604 51 0 0.0 0.0 0.00 0.00 0.00 87 1019.5
20260508131113 51 0 0.0 0.0 0.00 0.00 0.00 87 1019.5
20260508131057 51 0 0.0 0.0 0.00 0.00 0.00 87 1019.5
20260508130556 51 0 0.0 0.0 0.00 0.00 0.00 87 1019.6
20260508130550 51 0 0.0 0.0 0.00 0.00 0.00 87 1019.6
20260508130043 51 0 0.0 5.0 0.00 0.00 0.00 87 1019.5
20260508125029 51 0 0.0 5.0 0.00 0.00 0.00 87 1019.7
20260508125005 51 0 0.0 5.0 0.00 0.00 0.00 87 1019.7
20260508124522 51 302 2.0 5.0 0.00 0.00 0.00 87 1019.7
20260508124448 51 302 2.0 5.0 0.00 0.00 0.00 87 1019.7
20260508124015 51 270 2.0 4.0 0.00 0.00 0.00 87 1019.7
20260508123508 51 280 4.0 4.0 0.00 0.00 0.00 88 1019.7
20260508123415 51 0 0.0 6.0 0.00 0.00 0.00 88 1019.7
20260508122857 51 0 0.0 6.0 0.00 0.00 0.00 88 1019.7
20260508122340 51 0 0.0 6.0 0.00 0.00 0.00 89 1019.5
20260508121947 51 285 2.0 6.0 0.00 0.00 0.00 90 1019.5
20260508121440 51 334 2.0 5.0 0.00 0.00 0.00 91 1019.5
20260508115412 51 0 0.0 0.0 0.00 0.00 0.00 93 1019.2
20260508114358 50 0 0.0 0.0 0.00 0.00 0.00 95 1019.1
20260508114124 50 0 0.0 0.0 0.00 0.00 0.00 95 1019.2
20260508113851 50 0 0.0 0.0 0.00 0.00 0.00 94 1019.0
20260508113344 50 0 0.0 0.0 0.00 0.00 0.00 95 1018.9
20260508112330 50 0 0.0 0.0 0.00 0.00 0.00 95 1018.9
20260508111459 50 0 0.0 0.0 0.00 0.00 0.00 95 1018.8
20260508110942 50 0 0.0 3.0 0.00 0.00 0.00 95 1018.6
20260508110810 50 0 0.0 3.0 0.00 0.00 0.00 95 1018.6
20260508110425 50 0 0.0 3.0 0.00 0.00 0.00 95 1018.5
20260508110302 50 0 0.0 3.0 0.00 0.00 0.00 95 1018.6
20260508105908 50 0 0.0 3.0 0.00 0.00 0.00 96 1018.5
20260508105755 50 169 1.0 3.0 0.00 0.00 0.00 96 1018.5
20260508105351 50 0 0.0 0.0 0.00 0.00 0.00 96 1018.5
20260508105248 50 0 0.0 0.0 0.00 0.00 0.00 96 1018.5
20260508104834 50 0 0.0 0.0 0.00 0.00 0.00 96 1018.5
20260508104741 50 0 0.0 0.0 0.00 0.00 0.00 96 1018.6
20260508104234 50 0 0.0 0.0 0.00 0.00 0.00 96 1018.7
20260508103800 50 0 0.0 0.0 0.00 0.00 0.00 96 1018.7
20260508103727 50 0 0.0 0.0 0.00 0.00 0.00 96 1018.7
20260508103243 50 0 0.0 0.0 0.00 0.00 0.00 96 1018.7
20260508103221 50 0 0.0 0.0 0.00 0.00 0.00 96 1018.8
20260508102713 50 0 0.0 0.0 0.00 0.00 0.00 96 1018.6
20260508102206 50 0 0.0 0.0 0.00 0.00 0.00 96 1018.5
20260508101652 50 0 0.0 0.0 0.00 0.00 0.00 96 1018.4
20260508101135 50 0 0.0 0.0 0.00 0.00 0.00 96 1018.5
20260508100645 50 0 0.0 0.0 0.00 0.00 0.00 96 1018.4
20260508100138 50 0 0.0 0.0 0.00 0.00 0.00 96 1018.2
20260508095631 50 0 0.0 0.0 0.00 0.00 0.00 96 1018.1
20260508095544 50 0 0.0 0.0 0.00 0.00 0.00 96 1018.2
20260508095124 50 0 0.0 0.0 0.00 0.00 0.00 96 1018.2
20260508095027 50 0 0.0 0.0 0.00 0.00 0.00 96 1018.2
20260508094617 50 0 0.0 0.0 0.00 0.00 0.00 96 1018.2
20260508094510 50 0 0.0 0.0 0.00 0.00 0.00 96 1018.1
20260508094110 50 0 0.0 0.0 0.00 0.00 0.00 96 1018.2
20260508093953 50 0 0.0 0.0 0.00 0.00 0.00 96 1018.2
20260508093603 50 0 0.0 0.0 0.00 0.00 0.00 96 1018.1
20260508093436 50 0 0.0 0.0 0.00 0.00 0.00 96 1018.2
20260508093056 50 0 0.0 0.0 0.00 0.00 0.00 96 1018.1
20260508092919 50 0 0.0 0.0 0.00 0.00 0.00 96 1018.1
20260508092549 49 0 0.0 3.0 0.00 0.00 0.00 96 1018.3
20260508092402 49 0 0.0 3.0 0.00 0.00 0.00 96 1018.3
20260508091845 49 0 0.0 3.0 0.00 0.00 0.00 96 1018.2
20260508091535 49 0 0.0 3.0 0.00 0.00 0.00 96 1018.2
20260508091328 49 0 0.0 3.0 0.00 0.00 0.00 96 1018.2
20260508091028 49 208 1.0 3.0 0.00 0.00 0.00 96 1018.1
20260508090811 49 0 0.0 0.0 0.00 0.00 0.00 96 1018.2
20260508090521 49 0 0.0 0.0 0.00 0.00 0.00 96 1018.2
20260508085737 49 0 0.0 0.0 0.00 0.00 0.00 96 1018.0
20260508085507 49 0 0.0 0.0 0.00 0.00 0.00 96 1018.0
20260508085220 49 0 0.0 0.0 0.00 0.00 0.00 96 1018.0
20260508085001 49 0 0.0 0.0 0.00 0.00 0.00 96 1017.9
20260508084453 49 0 0.0 0.0 0.00 0.00 0.00 96 1017.9
20260508084146 48 0 0.0 0.0 0.00 0.00 0.00 96 1017.8
20260508083949 48 0 0.0 0.0 0.00 0.00 0.00 96 1017.8
20260508083629 48 0 0.0 0.0 0.00 0.00 0.00 95 1017.8
20260508083439 48 0 0.0 0.0 0.00 0.00 0.00 95 1017.7
20260508083112 48 0 0.0 0.0 0.00 0.00 0.00 95 1017.8
20260508082932 48 0 0.0 0.0 0.00 0.00 0.00 95 1017.9
20260508082425 48 0 0.0 0.0 0.00 0.00 0.00 95 1017.8
20260508081918 48 0 0.0 0.0 0.00 0.00 0.00 95 1017.7
20260508081521 47 0 0.0 0.0 0.00 0.00 0.00 95 1017.6
20260508081411 47 0 0.0 0.0 0.00 0.00 0.00 95 1017.6
20260508081004 47 0 0.0 0.0 0.00 0.00 0.00 95 1017.5
20260508080904 47 0 0.0 0.0 0.00 0.00 0.00 95 1017.6
20260508080447 47 0 0.0 0.0 0.00 0.00 0.00 95 1017.4
20260508080357 47 0 0.0 0.0 0.00 0.00 0.00 95 1017.4
20260508075930 47 0 0.0 0.0 0.00 0.00 0.00 95 1017.3
20260508075850 47 0 0.0 0.0 0.00 0.00 0.00 95 1017.2
20260508075412 47 0 0.0 0.0 0.00 0.00 0.00 94 1017.4
20260508074855 47 0 0.0 0.0 0.00 0.00 0.00 94 1017.6
20260508074836 47 0 0.0 0.0 0.00 0.00 0.00 94 1017.6
20260508074338 47 0 0.0 0.0 0.00 0.00 0.00 94 1017.6
20260508074329 47 0 0.0 0.0 0.00 0.00 0.00 94 1017.6
20260508073822 47 0 0.0 0.0 0.00 0.00 0.00 94 1017.6
20260508073315 46 0 0.0 0.0 0.00 0.00 0.00 94 1017.5
20260508073305 46 0 0.0 0.0 0.00 0.00 0.00 94 1017.5
20260508072808 46 0 0.0 0.0 0.00 0.00 0.00 94 1017.5
20260508072747 46 0 0.0 0.0 0.00 0.00 0.00 94 1017.5
20260508072301 47 0 0.0 0.0 0.00 0.00 0.00 93 1017.5
20260508072232 47 0 0.0 0.0 0.00 0.00 0.00 93 1017.5
20260508071754 47 0 0.0 0.0 0.00 0.00 0.00 92 1017.4
20260508071713 47 0 0.0 0.0 0.00 0.00 0.00 93 1017.4
20260508071246 47 0 0.0 0.0 0.00 0.00 0.00 93 1017.4
20260508071156 47 0 0.0 0.0 0.00 0.00 0.00 93 1017.4
20260508070740 47 0 0.0 0.0 0.00 0.00 0.00 93 1017.4
20260508070639 47 0 0.0 0.0 0.00 0.00 0.00 93 1017.4
20260508070304 47 0 0.0 0.0 0.00 0.00 0.00 93 1017.3
20260508070232 47 0 0.0 0.0 0.00 0.00 0.00 93 1017.3
20260508070122 47 0 0.0 0.0 0.00 0.00 0.00 93 1017.3
20260508065726 47 0 0.0 0.0 0.00 0.00 0.00 93 1017.3
20260508065605 47 0 0.0 0.0 0.00 0.00 0.00 93 1017.4
20260508065218 47 0 0.0 0.0 0.00 0.00 0.00 92 1017.3
20260508065048 47 0 0.0 0.0 0.00 0.00 0.00 92 1017.4
20260508064712 47 0 0.0 0.0 0.00 0.00 0.00 92 1017.3
20260508064531 47 0 0.0 0.0 0.00 0.00 0.00 92 1017.3
20260508064205 47 0 0.0 0.0 0.00 0.00 0.00 92 1017.3
20260508063657 47 0 0.0 0.0 0.00 0.00 0.00 92 1017.2
20260508063457 47 0 0.0 0.0 0.00 0.00 0.00 92 1017.3
20260508062940 48 0 0.0 0.0 0.00 0.00 0.00 92 1017.1
20260508062643 48 0 0.0 0.0 0.00 0.00 0.00 91 1017.1
20260508062425 48 0 0.0 0.0 0.00 0.00 0.00 91 1017.3
20260508062136 48 0 0.0 0.0 0.00 0.00 0.00 91 1017.3
20260508061906 48 0 0.0 0.0 0.00 0.00 0.00 91 1017.2
20260508061629 48 0 0.0 0.0 0.00 0.00 0.00 91 1017.2
20260508061350 48 0 0.0 0.0 0.00 0.00 0.00 91 1017.2
20260508061122 48 0 0.0 0.0 0.00 0.00 0.00 91 1017.1
20260508060832 48 0 0.0 0.0 0.00 0.00 0.00 91 1017.2
20260508060615 48 0 0.0 0.0 0.00 0.00 0.00 91 1017.2
20260508060315 48 0 0.0 0.0 0.00 0.00 0.00 90 1017.1
20260508060108 48 0 0.0 0.0 0.00 0.00 0.00 90 1017.1
20260508055758 49 0 0.0 0.0 0.00 0.00 0.00 90 1017.1
20260508055601 49 0 0.0 0.0 0.00 0.00 0.00 90 1017.0
20260508055241 49 0 0.0 0.0 0.00 0.00 0.00 90 1017.1
20260508055054 49 0 0.0 0.0 0.00 0.00 0.00 90 1017.0
20260508054724 49 0 0.0 0.0 0.00 0.00 0.00 90 1017.2
20260508054547 49 0 0.0 0.0 0.00 0.00 0.00 90 1017.3
20260508054208 49 0 0.0 0.0 0.00 0.00 0.00 90 1017.2
20260508054040 49 0 0.0 0.0 0.00 0.00 0.00 89 1017.2
20260508053652 49 0 0.0 0.0 0.00 0.00 0.00 89 1017.1
20260508053533 49 0 0.0 0.0 0.00 0.00 0.00 89 1017.1
20260508053134 49 0 0.0 0.0 0.00 0.00 0.00 89 1017.1
20260508053027 49 0 0.0 0.0 0.00 0.00 0.00 89 1017.1
20260508052616 50 0 0.0 0.0 0.00 0.00 0.00 89 1017.1
20260508052520 50 0 0.0 0.0 0.00 0.00 0.00 89 1017.1
20260508052100 50 0 0.0 0.0 0.00 0.00 0.00 89 1017.1
20260508052012 50 0 0.0 0.0 0.00 0.00 0.00 89 1017.1
20260508051505 50 0 0.0 0.0 0.00 0.00 0.00 89 1017.0
20260508051026 50 0 0.0 0.0 0.00 0.00 0.00 89 1017.0
20260508050958 50 0 0.0 0.0 0.00 0.00 0.00 89 1017.0
20260508050508 50 0 0.0 0.0 0.00 0.00 0.00 88 1017.1
20260508050451 50 0 0.0 0.0 0.00 0.00 0.00 88 1017.1
20260508045945 50 0 0.0 0.0 0.00 0.00 0.00 88 1017.0
20260508045434 50 0 0.0 0.0 0.00 0.00 0.00 88 1017.1
20260508044931 51 0 0.0 0.0 0.00 0.00 0.00 88 1017.1
20260508044917 51 0 0.0 0.0 0.00 0.00 0.00 88 1017.1
20260508044423 51 0 0.0 0.0 0.00 0.00 0.00 88 1017.0
20260508044400 51 0 0.0 0.0 0.00 0.00 0.00 88 1017.0
20260508043916 51 0 0.0 0.0 0.00 0.00 0.00 88 1017.0
20260508043844 51 0 0.0 0.0 0.00 0.00 0.00 88 1017.2
20260508043409 51 0 0.0 0.0 0.00 0.00 0.00 88 1017.2
20260508043326 51 0 0.0 0.0 0.00 0.00 0.00 87 1017.2
20260508042902 51 0 0.0 0.0 0.00 0.00 0.00 87 1017.1
20260508042809 51 0 0.0 0.0 0.00 0.00 0.00 87 1017.2
20260508042355 51 0 0.0 0.0 0.00 0.00 0.00 87 1017.0
20260508042252 51 0 0.0 0.0 0.00 0.00 0.00 87 1017.1
20260508041848 51 0 0.0 5.0 0.00 0.00 0.00 87 1017.0
20260508041737 51 0 0.0 5.0 0.00 0.00 0.00 87 1017.1
20260508041342 52 0 0.0 5.0 0.00 0.00 0.00 87 1017.0
20260508041220 52 0 0.0 5.0 0.00 0.00 0.00 87 1016.9
20260508040835 52 0 0.0 5.0 0.00 0.00 0.00 87 1016.9
20260508040701 52 0 0.0 5.0 0.00 0.00 0.00 87 1017.0
20260508040327 52 0 0.0 5.0 0.00 0.00 0.00 87 1016.9
20260508035628 52 0 0.0 6.0 0.00 0.00 0.00 86 1017.0
20260508035313 52 0 0.0 6.0 0.00 0.00 0.00 86 1017.0
20260508035110 52 0 0.0 6.0 0.00 0.00 0.00 86 1016.9
20260508034553 52 320 1.0 6.0 0.00 0.00 0.00 86 1016.9
20260508034259 52 0 0.0 6.0 0.00 0.00 0.00 86 1016.8
20260508034037 52 37 3.0 6.0 0.00 0.00 0.00 86 1016.8
20260508033752 52 32 2.0 6.0 0.00 0.00 0.00 85 1016.8
20260508033519 52 357 1.0 6.0 0.00 0.00 0.00 85 1016.7
20260508033245 52 47 2.0 6.0 0.00 0.00 0.00 85 1016.8
20260508033002 52 47 2.0 6.0 0.00 0.00 0.00 85 1016.8
20260508032739 52 310 3.0 6.0 0.00 0.00 0.00 85 1016.7
20260508032445 52 310 3.0 6.0 0.00 0.00 0.00 85 1016.6
20260508032231 52 308 2.0 5.0 0.00 0.00 0.00 84 1016.8
20260508031928 52 308 2.0 5.0 0.00 0.00 0.00 84 1016.8
20260508031724 53 324 5.0 5.0 0.00 0.00 0.00 84 1016.8
20260508031411 53 355 2.0 10.0 0.00 0.00 0.00 84 1016.7
20260508031217 53 357 1.0 10.0 0.00 0.00 0.00 84 1016.7
20260508030854 53 357 1.0 10.0 0.00 0.00 0.00 84 1016.6
20260508030710 53 12 7.0 10.0 0.00 0.00 0.00 84 1016.5
20260508030337 53 35 3.0 10.0 0.00 0.00 0.00 84 1016.5
20260508030203 53 347 5.0 10.0 0.00 0.00 0.00 84 1016.5
20260508025820 53 0 0.0 10.0 0.00 0.00 0.00 83 1016.5
20260508025656 53 298 5.0 10.0 0.00 0.00 0.00 83 1016.7
20260508025306 53 0 0.0 8.0 0.00 0.00 0.00 83 1016.5
20260508024746 53 320 5.0 8.0 0.00 0.00 0.00 83 1016.4
20260508024642 53 320 7.0 8.0 0.00 0.00 0.00 83 1016.4
20260508024229 53 32 4.0 8.0 0.00 0.00 0.00 83 1016.5
20260508024135 54 32 7.0 8.0 0.00 0.00 0.00 83 1016.4
20260508023712 54 12 4.0 7.0 0.00 0.00 0.00 82 1016.8
20260508023628 54 12 5.0 7.0 0.00 0.00 0.00 82 1016.8
20260508023155 54 341 3.0 7.0 0.00 0.00 0.00 82 1016.8
20260508023121 54 341 3.0 7.0 0.00 0.00 0.00 82 1016.7
20260508022638 54 357 4.0 7.0 0.00 0.00 0.00 81 1016.8
20260508022614 54 357 3.0 7.0 0.00 0.00 0.00 81 1016.8
20260508022122 54 299 8.0 13.0 0.00 0.00 0.00 81 1016.7
20260508022107 54 326 8.0 13.0 0.00 0.00 0.00 81 1016.7
20260508021601 54 324 7.0 13.0 0.00 0.00 0.00 81 1016.7
20260508021053 54 326 9.0 13.0 0.00 0.00 0.00 80 1016.7
20260508021047 54 326 5.0 13.0 0.00 0.00 0.00 80 1016.7
20260508020546 54 313 10.0 13.0 0.00 0.00 0.00 80 1016.7
20260508020530 54 313 9.0 13.0 0.00 0.00 0.00 80 1016.7
20260508015532 54 317 6.0 9.0 0.00 0.00 0.00 79 1016.8
20260508015456 54 317 5.0 9.0 0.00 0.00 0.00 79 1016.7
20260508015025 55 343 7.0 13.0 0.00 0.00 0.00 78 1016.8
20260508014939 55 343 8.0 13.0 0.00 0.00 0.00 78 1016.8
20260508014518 55 4 7.0 13.0 0.00 0.00 0.00 78 1016.9
20260508014422 55 4 7.0 13.0 0.00 0.00 0.00 77 1016.8
20260508014011 55 357 8.0 13.0 0.00 0.00 0.00 78 1016.8
20260508013905 55 40 7.0 13.0 0.00 0.00 0.00 78 1016.8
20260508013504 55 344 7.0 13.0 0.00 0.00 0.00 77 1016.7
20260508013348 55 344 5.0 13.0 0.00 0.00 0.00 77 1016.9
20260508012957 55 305 7.0 13.0 0.00 0.00 0.00 76 1016.8
20260508012831 56 294 6.0 13.0 0.00 0.00 0.00 76 1016.9
20260508012450 56 0 11.0 13.0 0.00 0.00 0.00 76 1016.9
20260508012314 56 4 1.0 13.0 0.00 0.00 0.00 75 1017.0
20260508011943 56 15 5.0 13.0 0.00 0.00 0.00 75 1017.0
20260508011757 56 347 5.0 13.0 0.00 0.00 0.00 74 1017.0
20260508011436 57 327 9.0 13.0 0.00 0.00 0.00 73 1017.0
20260508011240 57 305 6.0 11.0 0.00 0.00 0.00 73 1017.0
20260508010929 57 9 7.0 11.0 0.00 0.00 0.00 72 1017.0
20260508010723 58 306 8.0 10.0 0.00 0.00 0.00 72 1017.1
20260508010422 58 306 5.0 10.0 0.00 0.00 0.00 72 1017.1
20260508010206 58 357 5.0 10.0 0.00 0.00 0.00 71 1017.1
20260508005916 58 330 7.0 10.0 0.00 0.00 0.00 70 1017.1
20260508005408 59 288 6.0 10.0 0.00 0.00 0.00 68 1017.1
20260508005132 60 333 7.0 10.0 0.00 0.00 0.00 68 1016.9
20260508004901 60 340 8.0 11.0 0.00 0.00 0.00 68 1017.0
20260508004615 61 4 5.0 11.0 0.00 0.00 0.00 68 1017.0
20260508004354 61 4 5.0 11.0 0.00 0.00 0.00 68 1016.9
20260508004058 61 340 5.0 11.0 0.00 0.00 0.00 68 1017.1
20260508003847 60 7 7.0 11.0 0.00 0.00 0.00 69 1017.1
20260508003541 60 326 6.0 11.0 0.00 0.00 0.00 68 1017.1
20260508003340 60 303 6.0 11.0 0.00 0.00 0.00 68 1017.2
20260508003025 60 8 5.0 9.0 0.00 0.00 0.00 69 1017.3
20260508002833 60 50 7.0 9.0 0.00 0.00 0.00 69 1017.3
20260508002507 60 350 4.0 8.0 0.00 0.00 0.00 69 1017.3
20260508002326 60 337 5.0 13.0 0.00 0.00 0.00 69 1017.4
20260508001950 60 292 8.0 13.0 0.00 0.00 0.00 69 1017.4
20260508001819 60 46 4.0 13.0 0.00 0.00 0.00 69 1017.4
20260508001433 60 337 7.0 13.0 0.00 0.00 0.00 68 1017.4
20260508001312 60 337 7.0 13.0 0.00 0.00 0.00 68 1017.4
20260508000916 60 301 7.0 13.0 0.00 0.00 0.00 68 1017.5
20260508000808 60 298 5.0 13.0 0.00 0.00 0.00 68 1017.5
20260508000359 60 295 8.0 10.0 0.00 0.00 0.00 68 1017.5
20260508000258 60 295 9.0 10.0 0.00 0.00 0.00 68 1017.5
20260507235842 60 351 6.0 13.0 0.00 0.00 0.00 68 1017.6
20260507235751 60 305 5.0 13.0 0.00 0.00 0.00 68 1017.5
20260507235325 60 305 9.0 13.0 0.00 0.00 0.00 67 1017.5
20260507234808 60 313 10.0 13.0 0.00 0.00 0.00 67 1017.6
20260507234737 60 315 8.0 13.0 0.00 0.00 0.00 67 1017.6
20260507234251 60 317 6.0 12.0 0.00 0.00 0.00 67 1017.7
20260507234230 60 317 8.0 12.0 0.00 0.00 0.00 67 1017.7
20260507233734 60 322 9.0 12.0 0.00 0.00 0.00 68 1017.6
20260507233723 60 322 8.0 12.0 0.00 0.00 0.00 67 1017.6
20260507233217 61 330 9.0 12.0 0.00 0.00 0.00 67 1017.5
20260507232700 61 285 5.0 13.0 0.00 0.00 0.00 67 1017.5
20260507232202 61 323 9.0 13.0 0.00 0.00 0.00 66 1017.5
20260507232143 61 323 10.0 13.0 0.00 0.00 0.00 67 1017.5
20260507231655 61 348 8.0 13.0 0.00 0.00 0.00 65 1017.7
20260507231626 62 348 9.0 13.0 0.00 0.00 0.00 65 1017.7
20260507231148 62 306 7.0 13.0 0.00 0.00 0.00 66 1017.8
20260507231109 62 306 8.0 13.0 0.00 0.00 0.00 66 1017.8
20260507230641 62 317 9.0 11.0 0.00 0.00 0.00 66 1017.8
20260507230552 62 317 5.0 11.0 0.00 0.00 0.00 65 1017.8
20260507230134 62 320 6.0 14.0 0.00 0.00 0.00 65 1017.7
20260507225627 62 327 9.0 14.0 0.00 0.00 0.00 66 1017.6
20260507225518 62 23 5.0 14.0 0.00 0.00 0.00 66 1017.7
20260507225122 62 2 4.0 14.0 0.00 0.00 0.00 66 1017.7
20260507225001 62 14 5.0 14.0 0.00 0.00 0.00 66 1017.7
20260507224613 62 302 9.0 14.0 0.00 0.00 0.00 66 1017.8
20260507224444 62 357 4.0 11.0 0.00 0.00 0.00 67 1017.8
20260507224106 62 323 9.0 11.0 0.00 0.00 0.00 65 1017.9
20260507223927 62 323 8.0 11.0 0.00 0.00 0.00 66 1017.9
20260507223559 62 295 8.0 8.0 0.00 0.00 0.00 67 1018.0
20260507223410 62 326 7.0 14.0 0.00 0.00 0.00 66 1018.0
20260507223052 62 357 9.0 14.0 0.00 0.00 0.00 68 1017.9
20260507222853 62 357 7.0 14.0 0.00 0.00 0.00 67 1017.8
20260507222545 62 18 5.0 14.0 0.00 0.00 0.00 67 1018.0
20260507222336 62 18 7.0 14.0 0.00 0.00 0.00 67 1018.0
20260507222038 61 21 7.0 14.0 0.00 0.00 0.00 68 1018.1
20260507221819 61 294 6.0 14.0 0.00 0.00 0.00 67 1018.2
20260507221531 61 329 9.0 11.0 0.00 0.00 0.00 67 1018.1
20260507221302 61 8 5.0 11.0 0.00 0.00 0.00 67 1018.2
20260507221024 62 319 8.0 11.0 0.00 0.00 0.00 67 1018.2
20260507220745 62 313 8.0 11.0 0.00 0.00 0.00 67 1018.2
20260507220517 62 313 7.0 11.0 0.00 0.00 0.00 68 1018.3
20260507220228 61 312 9.0 11.0 0.00 0.00 0.00 68 1018.4
20260507220010 61 340 5.0 11.0 0.00 0.00 0.00 68 1018.5
20260507215711 61 327 9.0 18.0 0.00 0.00 0.00 68 1018.4
20260507215503 61 322 9.0 18.0 0.00 0.00 0.00 68 1018.3
20260507215154 61 18 10.0 18.0 0.00 0.00 0.00 66 1018.4
20260507214956 62 18 8.0 18.0 0.00 0.00 0.00 67 1018.5
20260507214637 62 316 9.0 18.0 0.00 0.00 0.00 68 1018.5
20260507214449 62 306 6.0 18.0 0.00 0.00 0.00 67 1018.5
20260507214120 62 303 11.0 18.0 0.00 0.00 0.00 67 1018.6
20260507213942 62 306 7.0 12.0 0.00 0.00 0.00 66 1018.6
20260507213603 62 319 9.0 12.0 0.00 0.00 0.00 67 1018.6
20260507213435 62 319 11.0 12.0 0.00 0.00 0.00 67 1018.6
20260507213046 62 316 8.0 12.0 0.00 0.00 0.00 67 1018.5
20260507212928 62 316 9.0 12.0 0.00 0.00 0.00 67 1018.5
20260507212529 62 285 9.0 14.0 0.00 0.00 0.00 67 1018.5
20260507212421 62 312 8.0 14.0 0.00 0.00 0.00 68 1018.5
20260507212012 61 32 8.0 14.0 0.00 0.00 0.00 68 1018.6
20260507211914 61 32 8.0 14.0 0.00 0.00 0.00 67 1018.5